Location: Ravensburg
(47.7866°N, 9.6124°E)
Time: 21:21:06
(UTC+02:00)

ITAMSAT 1 - Pass Details

Date: 22 March 2026
Orbit: 782 x 793 km, 98.7° (Epoch: 14 April)

Event Time Altitude Azimuth Distance (km) Brightness Sun altitude
Exits shadow 20:09:06 18° 72° (ENE) 1,854 9.1 -15.9°
Maximum altitude 20:10:04 19° 57° (ENE) 1,808 9.2 -16.1°
Drops below altitude 10° 20:13:37 10° 14° (NNE) 2,360 10.2 -16.7°
Sets 20:16:34 0° 357° (N) 3,296 11.2 -17.1°
